Menu Close Menu
Station Historical Data
Daily Summary for May 25, 2017 Units:  English    Metric   Both
« Previous Day
Next Day »
Daily Weekly Monthly Yearly Custom
  High: Low: Average:
Temperature: 70.6 °F 55.7 °F 61.7 °F
Dew Point: 55.5 °F 50.9 °F 53.5 °F
Humidity: 92% 51% 76%
Wind Speed: 2.0mph 0.0mph 0.2mph
Wind Gust: 7.0mph - -
Wind- - West
Pressure: 29.93 in 29.59 in -
Precipitation: 0.06 in    
Historical Graphs
 
 
Tabular Data for May 25, 2017
Time Temperature Dew Point Pressure Wind Wind Speed Wind Gust Humidity Rainfall Rate (Hourly) solar Conditions
00:00 59.0 °F 54.2 °F 29.59 in Calm     84% 0.00 in WeatherDisplay:10.37 W/m2 RA
00:10 58.8 °F 54.3 °F 29.60 in Calm   1.0 mph 85% 0.00 in WeatherDisplay:10.37 W/m2 SCT
00:20 59.0 °F 55.1 °F 29.60 in Calm   1.0 mph 87% 0.00 in WeatherDisplay:10.37 W/m2 SCT
00:30 58.5 °F 54.9 °F 29.60 in Calm   1.0 mph 88% 0.01 in WeatherDisplay:10.37 W/m2 SCT
00:40 58.1 °F 54.9 °F 29.60 in Calm     89% 0.01 in WeatherDisplay:10.37 W/m2 SCT
00:50 58.0 °F 55.0 °F 29.60 in Calm     90% 0.00 in WeatherDisplay:10.37 W/m2 SCT
01:00 57.8 °F 55.2 °F 29.60 in Calm     91% 0.01 in WeatherDisplay:10.37 W/m2 SCT
01:10 57.8 °F 55.2 °F 29.60 in Calm     91% 0.00 in WeatherDisplay:10.37 W/m2 SCT
01:20 57.8 °F 55.1 °F 29.60 in Calm   1.0 mph 91% 0.00 in WeatherDisplay:10.37 W/m2 SCT
01:30 57.8 °F 55.5 °F 29.61 in Calm   1.0 mph 92% 0.01 in WeatherDisplay:10.37 W/m2 SCT
01:40 57.6 °F 55.3 °F 29.61 in Calm   1.0 mph 92% 0.01 in WeatherDisplay:10.37 W/m2 SCT
01:50 57.6 °F 55.3 °F 29.61 in Calm   1.0 mph 92% 0.00 in WeatherDisplay:10.37 W/m2 SCT
02:00 57.5 °F 55.2 °F 29.61 in Calm   1.0 mph 92% 0.00 in WeatherDisplay:10.37 W/m2 SCT
02:10 57.3 °F 55.0 °F 29.61 in Calm   1.0 mph 92% 0.00 in WeatherDisplay:10.37 W/m2 SCT
02:20 57.2 °F 54.9 °F 29.61 in Calm     92% 0.00 in WeatherDisplay:10.37 W/m2 SCT
02:30 57.2 °F 54.9 °F 29.61 in Calm     92% 0.00 in WeatherDisplay:10.37 W/m2 SCT
02:40 57.1 °F 54.8 °F 29.61 in Calm     92% 0.00 in WeatherDisplay:10.37 W/m2 SCT
02:50 57.0 °F 54.7 °F 29.61 in Calm     92% 0.00 in WeatherDisplay:10.37 W/m2 SCT
03:00 57.0 °F 54.7 °F 29.61 in Calm     92% 0.00 in WeatherDisplay:10.37 W/m2 SCT
03:10 57.0 °F 54.7 °F 29.61 in Calm   1.0 mph 92% 0.00 in WeatherDisplay:10.37 W/m2 SCT
03:20 56.9 °F 54.6 °F 29.61 in Calm   1.0 mph 92% 0.00 in WeatherDisplay:10.37 W/m2 SCT
03:30 56.9 °F 54.6 °F 29.61 in Calm   1.0 mph 92% 0.01 in WeatherDisplay:10.37 W/m2 RA
03:40 56.8 °F 54.5 °F 29.61 in Calm   2.0 mph 92% 0.00 in WeatherDisplay:10.37 W/m2 SCT
03:50 56.9 °F 54.6 °F 29.61 in Calm   1.0 mph 92% 0.00 in WeatherDisplay:10.37 W/m2 SCT
04:00 56.7 °F 54.4 °F 29.61 in Calm   1.0 mph 92% 0.00 in WeatherDisplay:10.37 W/m2 SCT
04:10 55.7 °F 53.4 °F 29.61 in Calm     92% 0.00 in WeatherDisplay:10.37 W/m2 SCT
04:20 55.7 °F 53.4 °F 29.62 in Calm     92% 0.00 in WeatherDisplay:10.37 W/m2 SCT
04:30 55.7 °F 53.4 °F 29.62 in Calm     92% 0.00 in WeatherDisplay:10.37 W/m2 SCT
04:40 55.7 °F 53.4 °F 29.63 in Calm     92% 0.00 in WeatherDisplay:10.37 W/m2 SCT
04:50 55.7 °F 53.4 °F 29.63 in Calm     92% 0.00 in WeatherDisplay:10.37 W/m2 SCT
05:00 55.7 °F 53.4 °F 29.63 in Calm     92% 0.00 in WeatherDisplay:10.37 W/m2 SCT
05:10 55.7 °F 53.4 °F 29.63 in Calm     92% 0.00 in WeatherDisplay:10.37 W/m2 SCT
05:20 55.7 °F 53.4 °F 29.63 in Calm     92% 0.00 in WeatherDisplay:10.37 W/m2 SCT
05:30 55.7 °F 53.4 °F 29.64 in Calm     92% 0.00 in WeatherDisplay:10.37 W/m2 SCT
05:40 55.7 °F 53.4 °F 29.64 in Calm     92% 0.00 in WeatherDisplay:10.37 W/m2 SCT
05:50 55.7 °F 53.4 °F 29.65 in Calm     92% 0.00 in WeatherDisplay:10.37 W/m2 SCT
06:00 55.7 °F 53.4 °F 29.65 in Calm     92% 0.00 in WeatherDisplay:10.37 W/m2 SCT
06:10 55.7 °F 53.4 °F 29.65 in Calm     92% 0.00 in WeatherDisplay:10.37 W/m2 SCT
06:20 55.7 °F 53.4 °F 29.66 in Calm     92% 0.00 in WeatherDisplay:10.37 W/m2 SCT
06:30 55.7 °F 53.4 °F 29.66 in Calm     92% 0.00 in WeatherDisplay:10.37 W/m2 SCT
06:40 55.7 °F 53.4 °F 29.66 in Calm     92% 0.00 in WeatherDisplay:10.37 W/m2 SCT
06:50 55.7 °F 53.4 °F 29.67 in Calm     92% 0.00 in WeatherDisplay:10.37 W/m2 SCT
07:00 55.7 °F 53.4 °F 29.67 in Calm     92% 0.00 in WeatherDisplay:10.37 W/m2 SCT
07:10 55.7 °F 53.4 °F 29.68 in Calm     92% 0.00 in WeatherDisplay:10.37 W/m2 SCT
07:20 55.7 °F 53.4 °F 29.68 in Calm     92% 0.00 in WeatherDisplay:10.37 W/m2 SCT
07:40 55.7 °F 53.4 °F 29.69 in Calm     92% 0.00 in WeatherDisplay:10.37 W/m2 SCT
07:50 55.7 °F 53.4 °F 29.70 in Calm     92% 0.00 in WeatherDisplay:10.37 W/m2 SCT
08:00 55.7 °F 53.4 °F 29.70 in Calm     92% 0.00 in WeatherDisplay:10.37 W/m2 SCT
08:10 55.7 °F 53.4 °F 29.71 in Calm     92% 0.00 in WeatherDisplay:10.37 W/m2 SCT
08:20 55.7 °F 53.4 °F 29.72 in Calm     92% 0.00 in WeatherDisplay:10.37 W/m2 SCT
08:30 55.7 °F 53.4 °F 29.72 in Calm     92% 0.00 in WeatherDisplay:10.37 W/m2 SCT
08:40 55.7 °F 53.4 °F 29.73 in Calm     92% 0.00 in WeatherDisplay:10.37 W/m2 SCT
08:50 55.7 °F 53.4 °F 29.73 in Calm     92% 0.00 in WeatherDisplay:10.37 W/m2 SCT
09:00 55.7 °F 53.4 °F 29.73 in Calm     92% 0.00 in WeatherDisplay:10.37 W/m2 SCT
09:10 55.9 °F 53.3 °F 29.73 in Calm     91% 0.00 in WeatherDisplay:10.37 W/m2 SCT
09:20 56.6 °F 53.7 °F 29.73 in Calm   2.0 mph 90% 0.00 in WeatherDisplay:10.37 W/m2 SCT
09:30 57.2 °F 54.0 °F 29.73 in Calm   3.0 mph 89% 0.00 in WeatherDisplay:10.37 W/m2 SCT
09:40 58.1 °F 54.0 °F 29.73 in Calm   3.0 mph 86% 0.00 in WeatherDisplay:10.37 W/m2 SCT
09:50 58.7 °F 54.5 °F 29.74 in SW 1.0 mph 3.0 mph 86% 0.00 in WeatherDisplay:10.37 W/m2 SCT
10:00 59.3 °F 54.8 °F 29.75 in Calm   1.0 mph 85% 0.00 in WeatherDisplay:10.37 W/m2 SCT
10:10 59.9 °F 54.1 °F 29.75 in NW 1.0 mph 5.0 mph 81% 0.00 in WeatherDisplay:10.37 W/m2 SCT
10:20 59.9 °F 54.4 °F 29.76 in Calm   2.0 mph 82% 0.00 in WeatherDisplay:10.37 W/m2 SCT
10:30 60.9 °F 55.1 °F 29.76 in WNW 1.0 mph 5.0 mph 81% 0.00 in WeatherDisplay:10.37 W/m2 SCT
10:40 60.7 °F 54.8 °F 29.76 in Calm   2.0 mph 81% 0.00 in WeatherDisplay:10.37 W/m2 SCT
10:50 61.2 °F 55.0 °F 29.76 in WNW 1.0 mph 3.0 mph 80% 0.00 in WeatherDisplay:10.37 W/m2 SCT
11:00 62.0 °F 55.1 °F 29.76 in Calm   5.0 mph 78% 0.00 in WeatherDisplay:10.37 W/m2 SCT
11:20 63.1 °F 55.0 °F 29.77 in Calm   1.0 mph 75% 0.00 in WeatherDisplay:10.37 W/m2 SCT
11:30 63.3 °F 55.2 °F 29.77 in Calm   5.0 mph 75% 0.00 in WeatherDisplay:10.37 W/m2 SCT
11:40 63.6 °F 54.8 °F 29.78 in SSE 2.0 mph 6.0 mph 73% 0.00 in WeatherDisplay:10.37 W/m2 SCT
11:50 63.5 °F 53.9 °F 29.78 in WNW 1.0 mph 3.0 mph 71% 0.00 in WeatherDisplay:10.37 W/m2 SCT
12:00 63.7 °F 53.7 °F 29.78 in WNW 1.0 mph 5.0 mph 70% 0.00 in WeatherDisplay:10.37 W/m2 SCT
12:10 63.3 °F 54.5 °F 29.78 in Calm   5.0 mph 73% 0.00 in WeatherDisplay:10.37 W/m2 SCT
12:20 65.2 °F 55.2 °F 29.78 in WNW 1.0 mph 7.0 mph 70% 0.00 in WeatherDisplay:10.37 W/m2 SCT
12:30 65.5 °F 54.7 °F 29.79 in Calm   3.0 mph 68% 0.00 in WeatherDisplay:10.37 W/m2 SCT
12:40 65.3 °F 54.4 °F 29.79 in Calm   5.0 mph 68% 0.00 in WeatherDisplay:10.37 W/m2 SCT
12:50 66.4 °F 53.9 °F 29.79 in Calm   5.0 mph 64% 0.00 in WeatherDisplay:10.37 W/m2 SCT
13:00 66.8 °F 54.7 °F 29.79 in NW 1.0 mph 3.0 mph 65% 0.00 in WeatherDisplay:10.37 W/m2 SCT
13:10 67.7 °F 52.9 °F 29.79 in NW 1.0 mph 5.0 mph 59% 0.00 in WeatherDisplay:10.37 W/m2 SCT
13:20 68.7 °F 55.1 °F 29.79 in NW 1.0 mph 3.0 mph 62% 0.00 in WeatherDisplay:10.37 W/m2 SCT
13:30 69.1 °F 53.3 °F 29.79 in West 2.0 mph 7.0 mph 57% 0.00 in WeatherDisplay:10.37 W/m2 SCT
13:40 68.7 °F 52.8 °F 29.79 in Calm   5.0 mph 57% 0.00 in WeatherDisplay:10.37 W/m2 SCT
13:50 69.5 °F 53.6 °F 29.79 in West 1.0 mph 6.0 mph 57% 0.00 in WeatherDisplay:10.37 W/m2 SCT
14:00 70.0 °F 53.6 °F 29.80 in WNW 2.0 mph 5.0 mph 56% 0.00 in WeatherDisplay:10.37 W/m2 SCT
14:10 70.6 °F 54.1 °F 29.80 in WNW 1.0 mph 5.0 mph 56% 0.00 in WeatherDisplay:10.37 W/m2 SCT
14:20 70.2 °F 51.7 °F 29.80 in WSW 1.0 mph 6.0 mph 52% 0.00 in WeatherDisplay:10.37 W/m2 SCT
14:30 69.0 °F 51.2 °F 29.80 in North 1.0 mph 7.0 mph 53% 0.00 in WeatherDisplay:10.37 W/m2 SCT
14:40 67.2 °F 51.4 °F 29.80 in West 1.0 mph 3.0 mph 57% 0.00 in WeatherDisplay:10.37 W/m2 SCT
14:50 67.4 °F 52.1 °F 29.80 in Calm   6.0 mph 58% 0.00 in WeatherDisplay:10.37 W/m2 SCT
15:00 68.0 °F 52.2 °F 29.80 in NW 1.0 mph 6.0 mph 57% 0.00 in WeatherDisplay:10.37 W/m2 SCT
15:10 68.5 °F 52.2 °F 29.80 in WNW 1.0 mph 7.0 mph 56% 0.00 in WeatherDisplay:10.37 W/m2 SCT
15:20 69.3 °F 53.9 °F 29.80 in Calm   3.0 mph 58% 0.00 in WeatherDisplay:10.37 W/m2 SCT
15:30 69.2 °F 53.8 °F 29.79 in Calm   5.0 mph 58% 0.00 in WeatherDisplay:10.37 W/m2 SCT
15:40 69.8 °F 52.9 °F 29.79 in Calm   3.0 mph 55% 0.00 in WeatherDisplay:10.37 W/m2 SCT
15:50 69.9 °F 52.5 °F 29.79 in West 1.0 mph 5.0 mph 54% 0.00 in WeatherDisplay:10.37 W/m2 SCT
16:00 69.4 °F 51.0 °F 29.79 in WNW 1.0 mph 5.0 mph 52% 0.00 in WeatherDisplay:10.37 W/m2 SCT
16:10 70.1 °F 53.2 °F 29.80 in NW 1.0 mph 5.0 mph 55% 0.00 in WeatherDisplay:10.37 W/m2 SCT
16:20 69.9 °F 50.9 °F 29.80 in Calm   3.0 mph 51% 0.00 in WeatherDisplay:10.37 W/m2 SCT
16:40 69.1 °F 51.8 °F 29.80 in Calm   2.0 mph 54% 0.00 in WeatherDisplay:10.37 W/m2 SCT
16:50 69.9 °F 52.5 °F 29.81 in NW 1.0 mph 5.0 mph 54% 0.00 in WeatherDisplay:10.37 W/m2 SCT
17:00 69.7 °F 51.3 °F 29.80 in Calm   3.0 mph 52% 0.00 in WeatherDisplay:10.37 W/m2 SCT
17:10 69.6 °F 52.2 °F 29.80 in Calm   5.0 mph 54% 0.00 in WeatherDisplay:10.37 W/m2 SCT
17:20 70.2 °F 52.3 °F 29.81 in Calm   5.0 mph 53% 0.00 in WeatherDisplay:10.37 W/m2 SCT
17:30 69.7 °F 52.3 °F 29.81 in WNW 1.0 mph 3.0 mph 54% 0.00 in WeatherDisplay:10.37 W/m2 SCT
17:40 69.7 °F 52.3 °F 29.81 in WNW 1.0 mph 2.0 mph 54% 0.00 in WeatherDisplay:10.37 W/m2 SCT
17:50 69.8 °F 51.4 °F 29.81 in WNW 1.0 mph 5.0 mph 52% 0.00 in WeatherDisplay:10.37 W/m2 SCT
18:10 69.2 °F 52.8 °F 29.82 in Calm   1.0 mph 56% 0.00 in WeatherDisplay:10.37 W/m2 SCT
18:20 69.3 °F 52.9 °F 29.82 in West 1.0 mph 3.0 mph 56% 0.00 in WeatherDisplay:10.37 W/m2 SCT
18:30 69.1 °F 52.7 °F 29.82 in Calm   5.0 mph 56% 0.00 in WeatherDisplay:10.37 W/m2 SCT
18:40 68.6 °F 52.8 °F 29.82 in Calm   1.0 mph 57% 0.00 in WeatherDisplay:10.37 W/m2 SCT
18:50 68.3 °F 52.0 °F 29.82 in Calm   3.0 mph 56% 0.00 in WeatherDisplay:10.37 W/m2 SCT
19:00 68.2 °F 52.4 °F 29.83 in Calm   2.0 mph 57% 0.00 in WeatherDisplay:10.37 W/m2 SCT
19:10 68.1 °F 51.8 °F 29.83 in SW 1.0 mph 5.0 mph 56% 0.00 in WeatherDisplay:10.37 W/m2 SCT
19:20 67.9 °F 52.6 °F 29.83 in Calm   1.0 mph 58% 0.00 in WeatherDisplay:10.37 W/m2 SCT
19:30 67.4 °F 52.1 °F 29.83 in Calm   1.0 mph 58% 0.00 in WeatherDisplay:10.37 W/m2 SCT
19:40 67.0 °F 52.2 °F 29.83 in Calm   1.0 mph 59% 0.00 in WeatherDisplay:10.37 W/m2 SCT
19:50 66.7 °F 52.4 °F 29.84 in Calm   2.0 mph 60% 0.00 in WeatherDisplay:10.37 W/m2 SCT
20:00 66.3 °F 52.5 °F 29.84 in Calm     61% 0.00 in WeatherDisplay:10.37 W/m2 SCT
20:10 66.0 °F 52.2 °F 29.84 in Calm   2.0 mph 61% 0.00 in WeatherDisplay:10.37 W/m2 SCT
20:20 65.5 °F 52.6 °F 29.85 in Calm   1.0 mph 63% 0.00 in WeatherDisplay:10.37 W/m2 SCT
20:30 65.0 °F 52.1 °F 29.85 in Calm     63% 0.00 in WeatherDisplay:10.37 W/m2 SCT
20:40 64.5 °F 52.5 °F 29.85 in Calm     65% 0.00 in WeatherDisplay:10.37 W/m2 SCT
20:50 64.0 °F 52.4 °F 29.85 in Calm     66% 0.00 in WeatherDisplay:10.37 W/m2 SCT
21:00 63.4 °F 52.7 °F 29.86 in Calm     68% 0.00 in WeatherDisplay:10.37 W/m2 SCT
21:10 62.7 °F 52.8 °F 29.87 in Calm     70% 0.00 in WeatherDisplay:10.37 W/m2 SCT
21:20 62.1 °F 52.9 °F 29.86 in Calm     72% 0.00 in WeatherDisplay:10.37 W/m2 SCT
21:30 61.4 °F 52.7 °F 29.87 in Calm     73% 0.00 in WeatherDisplay:10.37 W/m2 SCT
21:40 60.9 °F 52.6 °F 29.88 in Calm     74% 0.00 in WeatherDisplay:10.37 W/m2 SCT
21:50 60.4 °F 52.8 °F 29.88 in Calm     76% 0.00 in WeatherDisplay:10.37 W/m2 SCT
22:00 60.1 °F 53.2 °F 29.88 in Calm     78% 0.00 in WeatherDisplay:10.37 W/m2 SCT
22:10 59.9 °F 53.7 °F 29.89 in Calm     80% 0.00 in WeatherDisplay:10.37 W/m2 SCT
22:20 59.5 °F 53.0 °F 29.89 in Calm     79% 0.00 in WeatherDisplay:10.37 W/m2 SCT
22:30 59.3 °F 52.8 °F 29.90 in Calm     79% 0.00 in WeatherDisplay:10.37 W/m2 SCT
22:40 59.1 °F 52.6 °F 29.90 in Calm     79% 0.00 in WeatherDisplay:10.37 W/m2 SCT
22:50 58.9 °F 53.1 °F 29.90 in Calm     81% 0.00 in WeatherDisplay:10.37 W/m2 SCT
23:00 58.7 °F 53.2 °F 29.91 in Calm     82% 0.00 in WeatherDisplay:10.37 W/m2 SCT
23:10 58.5 °F 53.1 °F 29.91 in Calm     82% 0.00 in WeatherDisplay:10.37 W/m2 SCT
23:20 58.4 °F 52.6 °F 29.92 in Calm     81% 0.00 in WeatherDisplay:10.37 W/m2 SCT
23:30 58.4 °F 52.6 °F 29.92 in Calm     81% 0.00 in WeatherDisplay:10.37 W/m2 SCT
23:40 58.3 °F 52.5 °F 29.93 in Calm     81% 0.00 in WeatherDisplay:10.37 W/m2 SCT
23:50 58.1 °F 52.3 °F 29.93 in Calm     81% 0.00 in WeatherDisplay:10.37 W/m2 SCT
Piedmont Bend
Compliments of Weather Underground - 4 mb